Location: Aalen
(48.8330°N, 10.1000°E)
Time: 14:24:50
(UTC+02:00)

Transit 4A - Visible Passes

Search period start: 04 August 2021 00:00
Search period end: 14 August 2021 00:00
Orbit: 872 x 972 km, 66.8° (Epoch: 03 August)

Date Brightness Start Highest point End Pass type
(mag) Time Alt. Az. Time Alt. Az. Time Alt. Az.
04 Aug 7.7 01:04:31 47° SW 01:06:19 88° NW 01:12:12 10° NE visible
04 Aug 9.6 02:48:41 10° W 02:53:28 25° NNW 02:58:15 10° NNE visible
04 Aug 10.3 04:39:14 10° NW 04:42:02 13° N 04:44:49 10° NNE visible
04 Aug 8.8 23:29:37 26° ESE 23:29:45 26° ESE 23:34:31 10° NE visible
05 Aug 8.0 01:13:05 34° WSW 01:15:40 65° NW 01:21:29 10° NNE visible
05 Aug 9.9 02:58:50 10° WNW 03:03:09 21° NNW 03:07:28 10° NNE visible
05 Aug 10.4 04:49:14 10° NNW 04:51:54 13° N 04:54:35 10° NNE visible
05 Aug 8.3 23:38:06 36° SE 23:38:50 38° ESE 23:44:10 10° NE visible
06 Aug 8.6 01:21:33 22° WSW 01:25:05 48° NW 01:30:44 10° NNE visible
06 Aug 10.2 03:09:04 10° WNW 03:12:54 18° NNW 03:16:45 10° NNE visible
06 Aug 10.4 04:58:59 10° NNW 05:01:47 13° N 05:04:36 10° NE visible
06 Aug 7.9 23:46:27 42° SSE 23:48:00 54° ESE 23:53:40 10° NE visible
07 Aug 9.1 01:29:54 13° WSW 01:34:35 37° NW 01:39:58 10° NNE visible
07 Aug 10.3 03:19:20 10° NW 03:22:42 15° NNW 03:26:05 10° NNE visible
07 Aug 10.4 05:08:32 10° NNW 05:11:39 14° NNE 05:14:47 10° NE visible
07 Aug 9.4 22:11:13 14° ESE 22:11:51 14° ESE 22:14:42 10° ENE visible
07 Aug 7.6 23:54:39 35° SSW 23:57:14 76° ESE 00:03:03 10° NE visible
08 Aug 9.5 01:39:06 10° W 01:44:09 29° NW 01:49:12 10° NNE visible
08 Aug 10.4 03:29:35 10° NW 03:32:33 14° N 03:35:32 10° NNE visible
08 Aug 10.4 05:17:55 10° NNW 05:21:29 16° NNE 05:25:04 10° NE visible
08 Aug 9.0 22:19:11 18° SE 22:20:49 21° ESE 22:25:01 10° ENE visible
09 Aug 7.8 00:02:37 22° SW 00:06:31 79° NW 00:12:23 10° NE visible
09 Aug 9.9 01:49:10 10° W 01:53:47 23° NNW 01:58:25 10° NNE visible
09 Aug 10.5 03:39:42 10° NNW 03:42:26 13° N 03:45:10 10° NNE visible
09 Aug 10.4 05:27:13 10° NNW 05:31:16 19° NNE 05:35:21 10° ENE visible
09 Aug 8.6 22:26:47 19° SSE 22:29:52 30° ESE 22:34:51 10° NE visible
10 Aug 8.3 00:10:09 10° SW 00:15:54 58° NW 00:21:40 10° NNE visible
10 Aug 10.2 01:59:21 10° WNW 02:03:30 19° NNW 02:07:39 10° NNE visible
10 Aug 10.5 03:49:36 10° NNW 03:52:19 13° N 03:55:02 10° NNE visible
10 Aug 8.1 22:33:33 10° S 22:38:58 43° ESE 22:44:27 10° NE visible
11 Aug 8.8 00:19:46 10° WSW 00:25:20 43° NW 00:30:54 10° NNE visible
11 Aug 10.4 02:09:36 10° WNW 02:13:16 17° NNW 02:16:56 10° NNE visible
11 Aug 10.6 03:59:16 10° NNW 04:02:12 14° N 04:05:07 10° NE visible
11 Aug 7.7 22:42:23 10° SSW 22:48:10 61° ESE 22:53:54 10° NE visible
12 Aug 9.3 00:29:35 10° WSW 00:34:51 34° NW 00:40:08 10° NNE visible
12 Aug 10.5 02:19:52 10° NW 02:23:05 15° NNW 02:26:19 10° NNE visible
12 Aug 10.6 04:08:46 10° NNW 04:12:03 15° NNE 04:15:21 10° NE visible
12 Aug 7.7 22:51:32 10° SSW 22:57:24 85° SE 23:03:16 10° NE visible
13 Aug 9.8 00:39:34 10° W 00:44:27 27° NW 00:49:21 10° NNE visible
13 Aug 10.6 02:30:05 10° NW 02:32:57 14° N 02:35:50 10° NNE visible
13 Aug 10.5 04:18:07 10° NNW 04:21:51 17° NNE 04:25:37 10° ENE visible
13 Aug 8.8 21:16:23 10° SSE 21:20:55 24° ESE 21:25:26 10° ENE visible
13 Aug 8.0 23:00:52 10° SW 23:06:44 71° NW 23:12:34 10° NNE visible
